Location: Unspecified
(20.0000°S, 0.0000°E)
Time: 10:38:38
(UTC+00:00)

BEESAT - Pass Details

Date: 30 August 2019
Orbit: 701 x 708 km, 98.6° (Epoch: 15 September)

Event Time Altitude Azimuth Distance (km) Brightness Sun altitude
Rises 05:03:22 0° 169° (S) 3,107 ? -16.5°
Reaches altitude 10° 05:05:38 10° 169° (S) 2,183 ? -16.0°
Maximum altitude 05:10:25 86° 255° (WSW) 711 ? -14.9°
Drops below altitude 10° 05:15:10 10° 345° (NNW) 2,160 ? -13.8°
Sets 05:17:24 0° 346° (NNW) 3,072 ? -13.2°
